Regional Weather Roundup
Issued by NWS

Home | Current Version | Previous Version | Graphics & Text | Print | Product List | Glossary On
Versions: 1 2 3 4 5 6 7 8 9 10 11 12 13 14 15 16 17 18 19 20 21 22 23 24 25 26 27
000
ASUS45 KSLC 260310
RWRUT

UTAH REGIONAL WEATHER ROUNDUP
NATIONAL WEATHER SERVICE SALT LAKE CITY UT
900 PM MDT FRI MAY 25 2018

UTZ001>011-023>025-260400-

NORTHERN UTAH

CITY           SKY/WX    TMP DP  RH WIND       PRES   REMARKS
BRIGHAM CITY   CLEAR     78  46  32 CALM      29.81F
HILL AFB       CLEAR     79  27  15 NW5       29.84S
LOGAN          CLEAR     72  47  40 E7        29.82S
OGDEN          CLEAR     75  32  20 CALM      29.81S
SALT LAKE CITY CLEAR     83  31  15 NW8       29.79S
TOOELE VALLEY  CLEAR     68  32  26 S10       29.82R
WENDOVER       CLEAR     79  26  14 SW23      29.79R
HEBER CITY       N/A     72  27  18 S7        29.89S
WEST JORDAN    CLEAR     75  37  25 S3        29.84S

$$

UTZ011>015-024>027-260400-

CENTRAL/NORTHEAST UTAH

CITY           SKY/WX    TMP DP  RH WIND       PRES   REMARKS
PROVO AIRPORT  CLEAR     73  50  44 S6        29.85R
MOAB/CANYONLAN CLEAR     75  10   8 W7        29.87S
DELTA          CLEAR     73  23  15 CALM      29.87R
PRICE          CLEAR     75   6   7 SE15      29.96S
ROOSEVELT      CLEAR     70  23  17 S6        29.94R
VERNAL         CLEAR     73  16  11 SW10      29.91S

$$

UTZ013>016-019>022-027-260400-

SOUTHERN UTAH

CITY           SKY/WX    TMP DP  RH WIND       PRES   REMARKS
BRYCE CANYON   CLEAR     63  10  12 SW13      30.10F
CEDAR CITY     CLEAR     68  19  15 SW12G22   29.96R
MILFORD        CLEAR     71  21  15 S14       29.89R
ST GEORGE      CLEAR     82  22  11 W9        29.83R
HANKSVILLE     CLEAR     81  16   9 S8        29.90S
BLANDING         N/A     71  16  12 S6        30.09S

$$

REGIONAL REPORTS     COLORADO/ARIZONA

CITY           SKY/WX    TMP DP  RH WIND       PRES   REMARKS
CRAIG, CO      CLEAR     62  34  35 CALM      30.02R
GRAND JUNCTION CLEAR     75  16  10 E6        29.92R
RIFLE, CO      CLEAR     75   5   6 SW10      29.98R
MONTROSE, CO   CLEAR     74  10   8 NE8       30.01R
CORTEZ, CO     CLEAR     64  27  24 CALM      30.05S
COLORADO CITY    N/A     73  18  12 W5        29.99R
PAGE, AZ       CLEAR     84   9   6 SW7       29.87R
GRAND CANYON   CLEAR     66   9  10 SW14      30.11S
KINGMAN, AZ      N/A    N/A N/A N/A MISG      29.91R
FLAGSTAFF, AZ  CLEAR     61  13  15 SW14      30.17R

$$

REGIONAL REPORTS    NEVADA/IDAHO/WYOMING

CITY           SKY/WX    TMP DP  RH WIND       PRES   REMARKS
LAS VEGAS, NV  CLEAR     82  28  14 SW10      29.79S
ELY, NY        CLEAR     64  23  21 S16       29.95S
ELKO, NV       PTCLDY    63  41  44 W13G25    29.88R
POCATELLO, ID  CLEAR     66  42  41 S7        29.83R
BURLEY, ID     CLEAR     76  31  19 S8        29.76S
FORT BRIDGER,    N/A     67  25  20 S12       30.03S
EVANSTON, WY   CLEAR     65  35  33 W10       30.01S
ROCK SPRINGS,  CLEAR     66  27  23 S10       30.01S

$$




USA.gov is the U.S. government's official web portal to all federal, state and local government web resources and services.